Regional Weather Roundup
Issued by NWS Kansas City/Pleasant Hill, MO

Home | Current Version | Previous Version | Graphics & Text | Print | Product List | Glossary Off
Versions: 1 2 3 4 5 6 7 8 9 10 11 12 13 14 15 16 17 18 19 20 21 22 23 24 25 26 27

000
ASUS43 KEAX 222010
RWREAX

WEATHER ROUNDUP FOR EASTERN KANSAS AND NORTHWEST MISSOURI
NATIONAL WEATHER SERVICE KANSAS CITY/PLEASANT HILL MO
300 PM CDT WED MAR 22 2017

KSZ040-057-103>105-MOZ028-029-037-043-222100-
...KANSAS CITY METROPOLITAN AREA...

CITY           SKY/WX    TMP DP  RH WIND       PRES   REMARKS
K.C. INTL      CLOUDY    55  25  31 E15       30.29F
K.C. DOWNTOWN  CLOUDY    56  27  32 E13G22    30.28F
LEES SUMMIT    CLOUDY    55  25  31 SE10G21   30.29F
OLATHE - IXD   MOSUNNY   56  26  31 E15G22    30.27F
OLATHE - OJC   CLOUDY    54  27  35 E15       30.27F
LAWRENCE       CLOUDY    58  23  26 E16G22    30.27F

$$

MOZ001>008-011>017-020>025-030>033-038>040-044>046-053-054-222100-
...NORTHERN AND CENTRAL MISSOURI...

CITY           SKY/WX    TMP DP  RH WIND       PRES   REMARKS
ST. JOSEPH     MOSUNNY   57  27  31 E12G22    30.30F
MOSBY            N/A     54  27  35 SE10G17   30.31F
WARRENSBURG    SUNNY     54  27  35 E16       30.30F
WHITEMAN AFB   MOSUNNY   56  28  33 E14       30.30F
CLINTON        CLOUDY    57  27  30 SE10      30.29F
SEDALIA        SUNNY     55  27  34 E16       30.33F
WARSAW         NOT AVBL
CHILLICOTHE      N/A     49  28  44 E12G18    30.37F
KIRKSVILLE     CLOUDY    46  24  42 E14       30.39F

$$

MOZ041-047>049-056>058-063>065-088>090-097-222100-
...EASTERN AND SOUTHERN MISSOURI...

CITY           SKY/WX    TMP DP  RH WIND       PRES   REMARKS
ST. LOUIS INTL PTSUNNY   51  17  26 NE14      30.41F
SPIRIT OF STL  SUNNY     51  20  29 NE10      30.39F
COLUMBIA       SUNNY     53  27  36 E14       30.35F
JEFFERSON CITY SUNNY     53  26  35 SE12G20   30.35F
ROLLA          SUNNY     53  27  36 NE15      30.32F
OSAGE BEACH    SUNNY    N/A N/A N/A E12       30.32F
SPRINGFIELD    CLOUDY    60  31  33 SE13      30.24F
BRANSON        CLOUDY    50  34  53 E8        30.28F
JOPLIN         CLOUDY    55  33  43 SE13      30.24F
WEST PLAINS    SUNNY     59  33  37 E8        30.29F

$$

IAZ060-094-KSZ022-034>040-054-083-096-NEZ052-066-093-222100-
...KANSAS...SOUTHEAST NEBRASKA AND IOWA...

CITY           SKY/WX    TMP DP  RH WIND       PRES   REMARKS
TOPEKA         SUNNY     58  21  24 E13G26    30.24F
MANHATTAN      PTSUNNY   60  22  23 SE17G23   30.20F
EMPORIA        CLOUDY    55  28  35 E17G25    30.19F
CHANUTE        CLOUDY    57  29  34 E13       30.22F
WICHITA        CLOUDY    55  34  45 SE10      30.17F
OMAHA          PTSUNNY   51  18  27 SE20      30.29F
LINCOLN        CLOUDY    53  19  26 SE16      30.26F
FALLS CITY     MOSUNNY   56  23  27 E14G24    30.26F
LAMONI         PTSUNNY   48  28  46 E10G18    30.34F
DES MOINES     CLOUDY    44  24  45 E10       30.40F

$$





USA.gov is the U.S. government's official web portal to all federal, state and local government web resources and services.